Regional Weather Roundup
Issued by NWS

Home | Current Version | Previous Version | Graphics & Text | Print | Product List | Glossary On
Versions: 1 2 3 4 5 6 7 8 9 10 11 12 13 14 15 16 17 18 19 20 21 22 23 24 25 26 27 28 29 30 31 32 33 34 35 36 37 38 39 40 41 42 43 44 45 46 47 48 49 50
000
ASUS43 KOAX 020810
RWRNE
OMARWRNE ALL

WEATHER ROUNDUP FOR NEBRASKA
NATIONAL WEATHER SERVICE OMAHA NE
300 AM CDT TUE JUN 02 2015

NOTES: SATELLITE DATA IS BEING USED TO AUGMENT CLOUD COVER ABOVE
       12000 FEET.
       "FAIR" INDICATES FEW OR NO CLOUDS BELOW 12,000 FEET WITH NO
       SIGNIFICANT WEATHER AND/OR OBSTRUCTIONS TO VISIBILITY.

  * THESE STATIONS DO NOT REPORT WEATHER SUCH AS RAIN...SNOW OR FOG.

NEZ001>004-019>022-054>056-020900-
NEBRASKA PANHANDLE

CITY           SKY/WX    TMP DP  RH WIND       PRES   REMARKS
SCOTTSBLUFF    PTCLDY    57  54  89 SE6       29.93F
ALLIANCE       MOCLDY    58  53  84 S10       29.92F
CHADRON        MOCLDY    68  51  54 S23G32    29.82R
KIMBALL          N/A    N/A N/A N/A MISG        N/A
SIDNEY         CLOUDY    58  56  93 S13       29.99F
$$

NEZ057>060-069>072-079>082-020900-
SOUTHWEST NEBRASKA

CITY           SKY/WX    TMP DP  RH WIND       PRES   REMARKS
NORTH PLATTE   LGT RAIN  64  56  75 S16G32    29.92F
IMPERIAL       CLOUDY    60  57  89 E13       29.96F
LEXINGTON      DRIZZLE   65  62  89 S7        30.02S
MCCOOK         TSTM      60  59  96 E9        30.04F FOG
OGALLALA       CLOUDY    61  58  90 S7        29.97F THUNDER
$$

NEZ005>010-023>029-035>040-094-020900-
NORTH CENTRAL NEBRASKA

CITY           SKY/WX    TMP DP  RH WIND       PRES   REMARKS
AINSWORTH      CLOUDY    64  60  85 S14G23    29.87S
BROKEN BOW     CLOUDY    65  60  84 S21G28    29.92F
O`NEILL        CLOUDY    65  58  78 S17       29.93F
ORD            CLOUDY    63  57  81 S13       29.95F
THEDFORD       LGT RAIN  67  56  65 S18G25    29.87R
$$

NEZ041-046>049-061>064-073>077-083>087-020900-
SOUTH CENTRAL NEBRASKA

CITY           SKY/WX    TMP DP  RH WIND       PRES   REMARKS
GRAND ISLAND   CLOUDY    62  55  77 S16G23    30.01S
AURORA         MOCLDY    61  57  87 S12G18    30.01S
HASTINGS       MOCLDY    61  55  81 S10       30.01S
HEBRON         MOCLDY    59  55  87 SE7       30.03S
HOLDREGE       CLOUDY    63  58  84 W6        30.04R
KEARNEY *      CLOUDY    63  55  77 SW9       30.04R
YORK           MOCLDY    59  55  88 S13       30.02F
$$

NEZ011>018-030>034-042>045-020900-
NORTHEAST NEBRASKA

CITY           SKY/WX    TMP DP  RH WIND       PRES   REMARKS
NORFOLK        CLOUDY    62  54  74 S15       30.00S
ALBION         CLOUDY    64  54  69 S12       30.00S
BLAIR          MOCLDY    58  52  80 S10G16    30.05S
COLUMBUS *     CLOUDY    61  52  72 S9        30.03F
FREMONT        CLOUDY    60  54  80 S9        30.05R
TEKAMAH        MOCLDY    60  53  77 SE9       30.04S
WAYNE          CLOUDY    60  54  82 S12       30.02R
$$

NEZ050>053-065>068-078-088>093-020900-
SOUTHEAST NEBRASKA

CITY           SKY/WX    TMP DP  RH WIND       PRES   REMARKS
LINCOLN        CLOUDY    58  54  86 S10       30.05F
OMAHA EPPLEY   MOCLDY    60  54  80 SE14      30.05F
BEATRICE       MOCLDY    57  54  88 SE6       30.06R
FALLS CITY     CLEAR     55  52  89 SE6       30.07F
NEBRASKA CITY  MOCLDY    56  54  92 S10       30.06F
PLATTSMOUTH    MOCLDY    56  53  87 SE10      30.06F
$$

NEZ044-045-051>053-067-020900-
OMAHA AREA

CITY           SKY/WX    TMP DP  RH WIND       PRES   REMARKS
OMAHA EPPLEY   MOCLDY    60  54  80 SE14      30.05F
BLAIR          MOCLDY    58  52  80 S10G16    30.05S
FREMONT        CLOUDY    60  54  80 S9        30.05R
MILLARD        CLOUDY    59  54  83 SE8       30.05F
OFFUTT AFB     MOCLDY    57  54  88 SE10      30.05F
PLATTSMOUTH    MOCLDY    56  53  87 SE10      30.06F
WAHOO          FAIR      59  55  85 S12       30.05R
$$



USA.gov is the U.S. government's official web portal to all federal, state and local government web resources and services.